Regional Weather Roundup
Issued by NWS

Home | Current Version | Previous Version | Graphics & Text | Print | Product List | Glossary On
Versions: 1 2 3 4 5 6 7 8 9 10 11 12 13 14 15 16 17 18 19 20 21 22 23 24 25 26 27 28 29 30 31 32 33 34 35 36 37 38 39 40 41 42 43 44 45 46 47 48 49 50
000
ASUS43 KMKX 072100
RWRWI

WISCONSIN REGIONAL WEATHER ROUNDUP
NATIONAL WEATHER SERVICE MILWAUKEE/SULLIVAN WI
300 PM CST WED DEC 07 2016

NOTE: "FAIR" INDICATES FEW OR NO CLOUDS BELOW 12,000 FEET WITH NO
SIGNIFICANT WEATHER AND/OR OBSTRUCTIONS TO VISIBILITY.

WIZ001-002-006>008-014>016-023>028-072200-
NORTHWEST WISCONSIN

CITY           SKY/WX    TMP DP  RH WIND       PRES   REMARKS
SUPERIOR ARPT  CLOUDY    22  11  64 W14G25    29.89R WCI   9
ASHLAND        CLOUDY    20  12  71 SW17G25   29.85R WCI   5
HAYWARD        CLOUDY    19  10  68 SW12G22   29.89R WCI   7
SIREN          PTSUNNY   19  10  66 W15G23    29.95R WCI   5
CUMBERLAND     CLOUDY    19  10  68 W21       29.93R WCI   3
RICE LAKE      PTSUNNY   21  11  66 W21G26    29.96R WCI   5
CHETEK         MOSUNNY   21  12  67 W8        29.95R WCI  12
LADYSMITH      FLURRIES  21  12  70 W17G23    29.92R WCI   6
EAU CLAIRE     NOT AVBL
MENOMONIE      FLURRIES  22  13  69 W18G25    30.00R WCI   8
NEW RICHMOND   MOSUNNY   20   9  62 W20G28    29.99R WCI   5
OSCEOLA        PTSUNNY   23  11  60 W18G24    30.03S WCI   8
$$

WIZ003>005-009-010-017-018-072200-
NORTH CENTRAL WISCONSIN

CITY           SKY/WX    TMP DP  RH WIND       PRES   REMARKS
MANITOWISH WTR FLURRIES  17  11  78 W12G24    29.79R WCI   4
ARBOR VITAE    LGT SNOW  19  13  75 W13G25    29.80R WCI   6
WOODRUFF       LGT SNOW  19  13  75 W13G25    29.80R WCI   6
RHINELANDER    LGT SNOW  20  13  74 W17G26    29.82R WCI   5
EAGLE RIVER    LGT SNOW  19  11  72 W12G22    29.78R WCI   6
LAND O LAKES   FLURRIES  19  11  74 W16G25    29.78R WCI   4
PHILLIPS       FLURRIES  18  12  76 W13G22    29.84R WCI   5
TOMAHAWK       LGT SNOW  19  13  77 W12G22    29.85R WCI   7
MEDFORD        LGT SNOW  17  12  78 W14G21    29.89R WCI   3
MERRILL        LGT SNOW  19  13  76 W15G26    29.88S WCI   5
$$

WIZ029-030-035-036-043>047-072200-
CENTRAL WISCONSIN

CITY           SKY/WX    TMP DP  RH WIND       PRES   REMARKS
WAUSAU         NOT AVBL
MOSINEE        FLURRIES  19  12  73 W18G28    29.92R WCI   4
MARSHFIELD     NOT AVBL
STEVENS POINT  CLOUDY    20  11  68 W18       29.94R WCI   5
WAUPACA        CLOUDY    26  16  64 SW18G24   29.96R WCI  13
WAUTOMA        NOT AVBL
WISC RAPIDS    NOT AVBL
CAMP DOUGLAS   NOT AVBL
$$

WIZ011>013-019>022-031-037>040-048>050-072200-
NORTHEAST WISCONSIN

CITY           SKY/WX    TMP DP  RH WIND       PRES   REMARKS
ANTIGO         FLURRIES  18  12  77 W21G30    29.85S WCI   1
SHAWANO        CLOUDY    27  15  59 W14G25    29.91R WCI  16
OCONTO         MOCLDY    26  14  59 W15G28    29.89R WCI  14
STURGEON BAY   NOT AVBL
GREEN BAY      MOCLDY    28  17  63 SW21G26   29.92S WCI  15
MANITOWOC      NOT AVBL
APPLETON       MOCLDY    25  12  58 W17G25    29.92S WCI  11
CLINTONVILLE   CLOUDY    27  14  59 W10       29.92R WCI  17
OSHKOSH        PTCLDY    23  14  68 W12G22    29.95S WCI  12
$$

WIZ032>034-041-042-053>061-072200-
SOUTHWEST WISCONSIN

CITY           SKY/WX    TMP DP  RH WIND       PRES   REMARKS
LA CROSSE      CLOUDY    23  12  62 W16       30.08R WCI  10
SPARTA         CLOUDY    21  13  71 W9G18     30.04R WCI  11
VIROQUA        CLOUDY    18  11  76 W15       30.03S WCI   4
BOSCOBEL       CLOUDY    22  12  65 W14G20    30.11R WCI   9
PRAIRIE DU CHI CLOUDY    21  12  67 W14G21    30.12R WCI   8
PLATTEVILLE    PTSUNNY   20  14  77 W15G23    30.09R WCI   7
$$

WIZ056-057-062-063-064-067-068-072200-
SOUTH CENTRAL WISCONSIN

CITY           SKY/WX    TMP DP  RH WIND       PRES   REMARKS
REEDSBURG      MOSUNNY   21  12  70 W13G18    30.02S WCI   8
BARABOO/DELLS  PTSUNNY   22  12  66 W14G20    30.01S WCI   9
LONE ROCK      NOT AVBL
MINERAL POINT  PTSUNNY   23  16  74 W12G17    30.06R WCI  12
MADISON        PTSUNNY   22  12  65 VRB7G18   30.04R WCI  13
MIDDLETON        N/A     24  16  70 W10       30.04  VSB 1   WCI  14
WATERTOWN      CLOUDY    23  16  75 SW14      30.02R WCI  10
MONROE         MOSUNNY   21  14  73 W20       30.05S WCI   6
JANESVILLE     PTSUNNY   25  16  68 W14G20    30.06R WCI  13
$$

WIZ051-052-058>065-066-070>072-072200-
SOUTHEAST WISCONSIN

CITY           SKY/WX    TMP DP  RH WIND       PRES   REMARKS
MILWAUKEE      PTSUNNY   27  15  61 W13G24    30.02R WCI  16
WAUKESHA       MOSUNNY   23  14  68 W17G23    30.02R WCI   9
MILWAUKEE/TIMM SUNNY     27  12  54 W14G25    30.01R WCI  15
RACINE         MOSUNNY   27  16  63 W17G23    30.04R WCI  14
BURLINGTON     PTSUNNY   24  17  73 W14G21    30.04R WCI  12
KENOSHA        MOSUNNY   27  18  69 W17G25    30.03R WCI  14
FOND DU LAC    MOSUNNY   23  12  62 W13G23    29.98R WCI  11
SHEBOYGAN      PTCLDY    24  14  65 W20G25    29.96R WCI  10
WEST BEND      NOT AVBL
JUNEAU         MOSUNNY   21  14  75 SW17      30.01R WCI   6
$$

LSZ147-162-072200-
LAKE SUPERIOR

STATION/POSITION TIME  TEMP    WIND        PRES    WAVE
                       AIR SEA DIR/SP/G            HT/PER
                 (UTC) (F)     (DEG/KT/KT) (MB)    (FT/S)
DEVILS ISLAND    2000   25     250/ 33/ 41 1008.7R
PORT WING        2040   22     230/ 14/ 21 1011.2R
SAXON HARBOR     2030   21     210/ 10/ 20 1010.5R
$$

LMZ867-665-643>646-072200-
LAKE MICHIGAN

STATION/POSITION TIME  TEMP    WIND        PRES    WAVE
                       AIR SEA DIR/SP/G            HT/PER
                 (UTC) (F)     (DEG/KT/KT) (MB)    (FT/S)
CHAMBERS ISLAND  2040   27     220/ 13/ 21 1010.5R
NORTHPORT PIER   2046   27     240/ 10/ 22 1010.5S
SISTER BAY       2038   31     290/ 25/ 30   N/A
ALGOMA LAKESHORE 2051          270/ 15/ 23   N/A
KEWAUNEE LAKESHO 2030   27     260/ 16/ 22 1012.3R
SHEBOYGAN LAKESH 2000   24     270/ 14/ 16 1015.1R
PORT WASHINGTON  2040   26     260/ 11/ 20 1016.6R
MILWAUKEE LAKESH 2030   26     260/ 16/ 18   N/A
KENOSHA   LAKESH 2000   27     250/ 14/ 20 1016.9
$$

TC  - TEMPERATURE IN CELSIUS
VSB - VISIBILITY IN STATUTE MILES
WCI - WIND CHILL INDEX
HX  - HEAT INDEX





USA.gov is the U.S. government's official web portal to all federal, state and local government web resources and services.